TimeEST,TemperatureF,Dew PointF,Humidity,Sea Level PressureIn,VisibilityMPH,Wind Direction,Wind SpeedMPH,Gust SpeedMPH,PrecipitationIn,Events,Conditions,WindDirDegrees,DateUTC
12:54 AM,27.0,21.9,81,30.24,10.0,Calm,Calm,-,N/A,,Mostly Cloudy,0,2012-11-27 05:54:00
1:54 AM,26.1,21.9,84,30.26,10.0,Calm,Calm,-,N/A,,Scattered Clouds,0,2012-11-27 06:54:00
2:54 AM,28.9,21.9,75,30.26,10.0,Calm,Calm,-,N/A,,Overcast,0,2012-11-27 07:54:00
3:54 AM,30.0,23.0,75,30.26,10.0,Calm,Calm,-,N/A,,Overcast,0,2012-11-27 08:54:00
4:54 AM,30.0,24.1,79,30.27,10.0,SSW,3.5,-,N/A,,Overcast,200,2012-11-27 09:54:00
5:54 AM,30.9,26.1,82,30.27,4.0,Calm,Calm,-,0.00,Snow,Light Snow,0,2012-11-27 10:54:00
6:49 AM,30.2,26.6,86,30.27,3.0,Calm,Calm,-,0.00,Snow,Light Snow,0,2012-11-27 11:49:00
6:52 AM,30.2,26.6,86,30.27,2.5,SW,3.5,-,0.00,Snow,Light Snow,220,2012-11-27 11:52:00
6:54 AM,30.0,26.1,85,30.29,2.5,SW,3.5,-,0.00,Snow,Light Snow,220,2012-11-27 11:54:00
7:17 AM,30.2,26.6,86,30.28,1.8,Calm,Calm,-,0.00,Snow,Light Snow,0,2012-11-27 12:17:00
7:29 AM,30.2,26.6,86,30.28,1.5,Calm,Calm,-,0.01,Snow,Light Snow,0,2012-11-27 12:29:00
7:54 AM,30.9,28.0,89,30.30,1.8,Calm,Calm,-,0.01,Snow,Light Snow,0,2012-11-27 12:54:00
8:24 AM,30.2,28.4,93,30.28,1.0,Calm,Calm,-,0.00,Snow,Light Snow,0,2012-11-27 13:24:00
8:54 AM,32.0,30.0,92,30.30,0.8,Calm,Calm,-,0.01,Snow,Light Snow,0,2012-11-27 13:54:00
9:00 AM,32.0,28.4,87,30.28,1.0,Calm,Calm,-,0.01,Snow,Light Snow,0,2012-11-27 14:00:00
9:09 AM,32.0,30.2,93,30.28,1.0,Calm,Calm,-,0.01,Snow,Light Snow,0,2012-11-27 14:09:00
9:29 AM,32.0,30.2,93,30.28,0.8,Calm,Calm,-,0.01,Snow,Light Snow,0,2012-11-27 14:29:00
9:37 AM,33.8,30.2,87,30.28,0.8,Calm,Calm,-,0.02,Snow,Light Snow,0,2012-11-27 14:37:00
9:54 AM,33.1,30.0,89,30.30,0.5,Calm,Calm,-,0.02,Fog-Snow,Snow,0,2012-11-27 14:54:00
9:57 AM,33.8,30.2,87,30.28,0.5,Calm,Calm,-,0.00,Fog-Snow,Snow,0,2012-11-27 14:57:00
10:13 AM,33.8,30.2,87,30.28,0.8,Calm,Calm,-,0.01,Snow,Light Snow,0,2012-11-27 15:13:00
10:54 AM,33.1,30.9,92,30.29,0.5,Calm,Calm,-,0.03,Fog-Snow,Snow,0,2012-11-27 15:54:00
11:27 AM,33.8,30.2,87,30.27,0.5,North,3.5,-,0.01,Fog-Snow,Snow,10,2012-11-27 16:27:00
11:54 AM,33.1,30.9,92,30.27,0.5,NNE,3.5,-,0.03,Fog-Snow,Snow,20,2012-11-27 16:54:00
12:46 PM,33.8,30.2,87,30.25,0.5,North,3.5,-,0.03,Fog-Snow,Snow,10,2012-11-27 17:46:00
12:54 PM,33.1,30.9,92,30.26,0.5,North,3.5,-,0.04,Fog-Snow,Snow,10,2012-11-27 17:54:00
1:21 PM,33.8,32.0,93,30.24,0.5,Calm,Calm,-,0.01,Fog-Snow,Snow,0,2012-11-27 18:21:00
1:54 PM,33.1,30.9,92,30.24,0.8,North,4.6,-,0.02,Snow,Light Snow,10,2012-11-27 18:54:00
2:30 PM,33.8,32.0,93,30.22,1.0,North,4.6,-,0.01,Snow,Light Snow,10,2012-11-27 19:30:00
2:39 PM,33.8,32.0,93,30.22,1.0,North,4.6,-,0.01,Snow,Light Snow,10,2012-11-27 19:39:00
2:47 PM,33.8,32.0,93,30.22,1.2,North,3.5,-,0.01,Snow,Light Snow,10,2012-11-27 19:47:00
2:54 PM,34.0,32.0,92,30.23,1.2,North,3.5,-,0.01,Snow,Light Snow,10,2012-11-27 19:54:00
3:54 PM,34.0,32.0,92,30.23,2.0,Calm,Calm,-,0.01,Snow,Light Snow,0,2012-11-27 20:54:00
4:43 PM,33.8,32.0,93,30.21,3.0,Calm,Calm,-,0.00,Snow,Light Snow,0,2012-11-27 21:43:00
4:54 PM,33.1,32.0,96,30.23,3.0,Calm,Calm,-,0.00,Snow,Light Snow,0,2012-11-27 21:54:00
5:45 PM,33.8,32.0,93,30.22,3.0,Calm,Calm,-,0.00,,Overcast,0,2012-11-27 22:45:00
5:54 PM,34.0,30.9,89,30.23,5.0,NNE,4.6,-,0.00,,Overcast,30,2012-11-27 22:54:00
6:13 PM,33.8,32.0,93,30.23,5.0,NNE,3.5,-,N/A,,Overcast,20,2012-11-27 23:13:00
6:29 PM,33.8,32.0,93,30.22,6.0,NNE,4.6,-,N/A,,Overcast,20,2012-11-27 23:29:00
6:54 PM,34.0,32.0,92,30.24,5.0,North,4.6,-,N/A,,Overcast,10,2012-11-27 23:54:00
7:40 PM,33.8,32.0,93,30.23,5.0,North,3.5,-,N/A,,Overcast,10,2012-11-28 00:40:00
7:54 PM,34.0,32.0,92,30.24,6.0,NNE,3.5,-,N/A,,Overcast,20,2012-11-28 00:54:00
8:04 PM,33.8,32.0,93,30.23,7.0,NNE,3.5,-,N/A,,Overcast,20,2012-11-28 01:04:00
8:16 PM,33.8,32.0,93,30.22,7.0,NNE,4.6,-,N/A,,Overcast,20,2012-11-28 01:16:00
8:54 PM,34.0,32.0,92,30.25,7.0,North,3.5,-,N/A,,Overcast,360,2012-11-28 01:54:00
9:09 PM,33.8,32.0,93,30.23,8.0,Calm,Calm,-,N/A,,Overcast,0,2012-11-28 02:09:00
9:41 PM,33.8,30.2,87,30.24,8.0,NNE,3.5,-,N/A,,Overcast,20,2012-11-28 02:41:00
9:54 PM,34.0,32.0,92,30.25,8.0,NNE,3.5,-,N/A,,Overcast,30,2012-11-28 02:54:00
10:15 PM,33.8,30.2,87,30.22,8.0,NNE,3.5,-,N/A,,Overcast,30,2012-11-28 03:15:00
10:54 PM,34.0,30.9,89,30.24,7.0,North,3.5,-,N/A,,Overcast,10,2012-11-28 03:54:00
11:54 PM,34.0,30.9,89,30.23,8.0,North,3.5,-,N/A,,Overcast,360,2012-11-28 04:54:00